[[{"header":{"parameterUnit":"m.s-1","parameterCategory":1,"la1":30.2991,"la2":30.254,"lo1":-89.0895,"lo2":-89.0444,"dy":0.0017,"dx":0.0017,"nx":28,"ny":28,"refTime":"2025-08-29T09:00:00:Z","depth":0,"parameterNumber":2,"parameterNumberName":"U-component_of_WINDS"},"data":[0,0,0,0,0,0,0,0,0,0,0,0,0,0,0,0,0,0,0,0,0,0,0,0,0,0,0,0,0,0,0,0,0,0,0,0,0,0,0,0,0,0,0,0,0,0,0,0,0,0,0,0,0,0,0,0,0,0,-5.4193,-5.4195,0,-5.4425,-5.4428,-5.443,-5.445,-5.4447,-5.4445,-5.4443,-5.4669,-5.4677,-5.4685,0,0,0,0,0,0,0,0,0,0,0,0,0,-5.376,-5.3767,-5.4192,-5.4195,-5.4198,-5.4425,-5.4428,-5.4431,-5.445,-5.4447,-5.4444,-5.4441,-5.4666,-5.4676,-5.4686,0,0,0,0,0,0,0,0,0,0,0,0,0,-5.3965,-5.377,-5.4192,-5.4235,-5.4242,-5.4424,-5.4428,-5.4432,-5.4451,-5.4447,-5.4443,-5.444,-5.4663,-5.4675,-5.4687,-5.4838,0,0,-5.4725,-5.4731,0,0,0,0,0,0,0,0,-5.3953,-5.3981,-5.4226,-5.4233,-5.424,-5.4405,-5.4358,-5.4567,-5.4452,-5.4371,-5.4442,-5.4438,-5.4583,-5.4602,-5.4653,-5.4848,-5.4858,-5.4726,-5.4734,-5.4739,-5.4743,0,0,0,0,0,0,0,-5.3939,-5.3971,-5.4284,-5.423,-5.4238,-5.4242,-5.4267,-5.4398,-5.4494,-5.4378,-5.438,-5.4408,-5.4586,-5.4641,-5.4659,-5.4862,-5.4726,-5.4737,-5.4745,-5.4749,-5.5198,-5.5203,0,0,0,0,0,0,-5.3918,-5.3959,-5.4277,-5.4291,-5.4085,-5.4252,-5.4281,-5.4355,-5.4493,-5.4511,-5.4411,-5.4408,-5.4622,-5.4644,-5.4667,-5.4854,-5.4739,-5.4751,-5.4758,-5.5194,-5.5199,-5.5204,0,0,0,0,0,0,-5.3908,-5.3946,-5.4267,-5.4126,-5.4167,-5.4264,-5.4348,-5.4362,-5.4417,-5.4518,-5.4535,-5.4449,-5.462,-5.4649,-5.4797,-5.4862,-5.4756,-5.4768,-5.5189,-5.5196,-5.5202,-5.5229,0,0,0,0,0,0,-5.3896,-5.3942,-5.4001,-5.4127,-5.4175,-5.4395,-5.4352,-5.4369,-5.444,-5.4438,-5.4559,-5.4575,-5.4619,-5.4779,-5.481,-5.4877,-5.4777,-5.5183,-5.5192,-5.52,-5.5222,-5.5236,-5.5247,0,0,0,0,0,-5.388,-5.3995,-5.4004,-5.4042,-5.425,-5.4399,-5.4425,-5.4477,-5.4445,-5.4504,-5.4571,-5.4571,-5.4852,-5.4794,-5.4829,-5.4901,-5.5179,-5.5189,-5.5199,-5.5217,-5.5233,-5.5247,0,0,0,0,0,0,-5.3867,-5.4012,-5.4023,-5.4183,-5.428,-5.4402,-5.4477,-5.4492,-5.4595,-5.4588,-5.4645,-5.4672,-5.4819,-5.4876,-5.4808,-5.5058,-5.5012,-5.5029,-5.5013,-5.503,-5.5042,-5.5022,-5.4788,0,0,0,0,0,-5.3885,-5.3996,-5.4116,-5.4245,-5.4294,-5.4378,-5.4444,-5.4477,-5.4577,-5.4616,-5.4693,-5.4787,-5.4898,-5.4968,-5.5074,-5.5234,-5.5261,-5.5302,-5.5314,-5.5324,-5.5336,-5.5428,-5.5447,-5.5237,-5.5237,-5.5237,0,0,-5.3917,-5.4011,-5.4076,-5.4245,-5.4323,-5.4436,-5.4411,-5.4529,-5.4613,-5.4633,-5.4778,-5.484,-5.4949,-5.5105,-5.5177,-5.5156,-5.5402,-5.5337,-5.5343,-5.535,-5.544,-5.546,-5.5477,-5.5244,-5.5243,-5.5241,0,0,-5.4034,-5.4118,-5.4236,-5.4318,-5.444,-5.4498,-5.4527,-5.465,-5.4693,-5.4842,-5.4861,-5.4962,-5.5149,-5.5228,-5.5292,-5.5453,-5.5457,-5.5486,-5.5546,-5.5636,-5.5652,-5.5667,-5.5723,-5.5743,-5.55,-5.55,-5.55,0,-5.4058,-5.4231,-5.4294,-5.4415,-5.4489,-5.4522,-5.4642,-5.4717,-5.4865,-5.4915,-5.4893,-5.5134,-5.521,-5.5386,-5.5427,-5.5478,-5.5512,-5.5468,-5.5646,-5.5661,-5.5676,-5.573,-5.5751,-5.5502,-5.5502,-5.5502,-5.5501,0,-5.4255,-5.4375,-5.4456,-5.4606,-5.4691,-5.481,-5.489,-5.4969,-5.4998,-5.5058,-5.5211,-5.5306,-5.5434,-5.548,-5.5506,-5.5662,-5.5646,-5.5634,-5.5588,-5.5697,-5.5749,-5.577,-5.5506,-5.5505,-5.5504,-5.5503,0,0,-5.4358,-5.4551,-5.4579,-5.465,-5.4793,-5.4885,-5.5009,-5.5141,-5.5206,-5.5312,-5.5415,-5.5579,-5.5572,-5.5646,-5.5683,-5.5762,-5.5884,-5.5741,-5.5745,-5.5762,-5.6062,-5.6066,-5.6089,-5.5892,-5.5896,-5.59,-5.6052,0,-5.4489,-5.4712,-5.4778,-5.4964,-5.5077,-5.5116,-5.5224,-5.5323,-5.5385,-5.5489,-5.5557,-5.5672,-5.5654,-5.57,-5.578,-5.5852,-5.5944,-5.5843,-5.5985,-5.599,-5.5951,-5.6116,-5.6119,-5.6258,-5.6073,-5.6076,-5.6079,0,-5.4668,-5.4784,-5.4984,-5.5119,-5.5169,-5.5265,-5.5394,-5.5494,-5.5609,-5.5649,-5.5737,-5.577,-5.5901,-5.5855,-5.6036,-5.5965,-5.603,-5.6075,-5.6082,-5.6091,-5.6036,-5.6126,-5.6303,-5.6322,-5.6112,-5.6109,-5.6107,0,-5.4721,-5.4927,-5.5075,-5.5135,-5.5296,-5.5364,-5.5433,-5.5546,-5.5623,-5.5736,-5.5787,-5.5913,-5.598,-5.6077,-5.6143,-5.6104,-5.6319,-5.6277,-5.6353,-5.6351,-5.6389,-5.6384,-5.6574,-5.6439,-5.6439,-5.6439,-5.6438,0,-5.4857,-5.4977,-5.5102,-5.5191,-5.5329,-5.5406,-5.5538,-5.561,-5.5712,-5.5815,-5.5858,-5.5953,-5.6039,-5.6146,-5.62,-5.6342,-5.6372,-5.6407,-5.6418,-5.64,-5.6395,-5.6437,-5.6427,-5.6444,-5.6443,-5.6442,-5.6441,0,-5.4935,-5.5024,-5.5187,-5.5332,-5.5371,-5.5466,-5.5588,-5.5677,-5.5746,-5.5878,-5.5913,-5.6019,-5.6149,-5.6229,-5.6391,-5.6428,-5.6584,-5.6594,-5.6545,-5.655,-5.662,-5.6611,-5.6838,-5.6872,-5.6719,-5.672,-5.6721,0,-5.5012,-5.5107,-5.5265,-5.5341,-5.5414,-5.5534,-5.5616,-5.5698,-5.5781,-5.5925,-5.5997,-5.6132,-5.6242,-5.6449,-5.6539,-5.6666,-5.6677,-5.6749,-5.6695,-5.6675,-5.6674,-5.6666,-5.6676,-5.6754,-5.6755,-5.6757,-5.6757,0,-5.514,-5.5183,-5.5301,-5.5438,-5.5536,-5.5646,-5.5755,-5.5814,-5.5915,-5.6007,-5.6144,-5.6232,-5.6404,-5.6536,-5.6674,-5.6744,-5.6767,-5.6776,-5.6799,-5.6778,-5.6745,-5.6762,-5.6565,-5.6767,-5.6766,-5.6766,-5.6765,-5.6765,-5.5218,-5.5306,-5.5433,-5.5565,-5.5659,-5.5763,-5.5855,-5.5941,-5.6058,-5.6207,-5.6249,-5.6393,-5.6512,-5.6699,-5.6774,-5.6887,-5.6875,-5.691,-5.6918,-5.6924,-5.6924,-5.6734,-5.6913,-5.6912,-5.6912,-5.6912,-5.6912,0,-5.5345,-5.5433,-5.5555,-5.5711,-5.5816,-5.5839,-5.5964,-5.6048,-5.6176,-5.6288,-5.6401,-5.656,-5.6693,-5.6798,-5.6934,-5.7004,-5.7019,-5.7037,-5.7029,-5.7045,-5.6927,-5.6892,-5.7023,-5.7023,-5.7023,-5.7023,-5.7023,-5.7023,-5.5424,-5.5574,-5.5634,-5.5832,-5.5918,-5.6063,-5.6133,-5.6229,-5.632,-5.6498,-5.6611,-5.6682,-5.6792,-5.6938,-5.706,-5.7089,-5.7134,-5.715,-5.7179,-5.7065,-5.7053,-5.7041,-5.7008,-5.7161,-5.7161,-5.7287,-5.7288,-5.7289]},{"header":{"parameterUnit":"m.s-1","parameterCategory":1,"la1":30.2991,"la2":30.254,"lo1":-89.0895,"lo2":-89.0444,"dy":0.0017,"dx":0.0017,"nx":28,"ny":28,"refTime":"2025-08-29T09:00:00:Z","depth":0,"parameterNumber":3,"parameterNumberName":"V-component_of_WINDS"},"data":[0,0,0,0,0,0,0,0,0,0,0,0,0,0,0,0,0,0,0,0,0,0,0,0,0,0,0,0,0,0,0,0,0,0,0,0,0,0,0,0,0,0,0,0,0,0,0,0,0,0,0,0,0,0,0,0,0,0,1.1468,1.147,0,1.1647,1.1649,1.1651,1.1712,1.1711,1.171,1.171,1.1882,1.1887,1.1892,0,0,0,0,0,0,0,0,0,0,0,0,0,1.1171,1.1176,1.1468,1.147,1.1473,1.1646,1.1649,1.1651,1.1712,1.1711,1.171,1.171,1.188,1.1887,1.1893,0,0,0,0,0,0,0,0,0,0,0,0,0,1.1319,1.1177,1.1468,1.1524,1.1531,1.1646,1.1649,1.1652,1.1712,1.1711,1.171,1.1709,1.1878,1.1886,1.1894,1.1962,0,0,1.1918,1.1921,0,0,0,0,0,0,0,0,1.1311,1.133,1.1514,1.152,1.1528,1.1656,1.1607,1.1756,1.1712,1.1643,1.171,1.1709,1.1807,1.1821,1.1856,1.197,1.1978,1.1918,1.1923,1.1926,1.1929,0,0,0,0,0,0,0,1.13,1.1323,1.1538,1.1516,1.1525,1.1537,1.1557,1.1636,1.1728,1.1649,1.1654,1.1675,1.1811,1.1848,1.1861,1.198,1.1918,1.1925,1.193,1.1933,1.216,1.2161,0,0,0,0,0,0,1.1282,1.1314,1.1533,1.1544,1.1415,1.1544,1.1566,1.1616,1.1728,1.1744,1.1675,1.1677,1.1835,1.1851,1.1867,1.1955,1.1926,1.1934,1.1938,1.2159,1.216,1.2162,0,0,0,0,0,0,1.1275,1.1301,1.1526,1.143,1.146,1.155,1.1605,1.162,1.1658,1.1748,1.1763,1.1697,1.1835,1.1856,1.1939,1.1962,1.1937,1.1944,1.2157,1.2159,1.2161,1.2132,0,0,0,0,0,0,1.1267,1.1298,1.1327,1.1431,1.1465,1.1597,1.1607,1.1624,1.1672,1.1676,1.1773,1.1787,1.1836,1.1927,1.1947,1.1972,1.195,1.2155,1.2158,1.216,1.2131,1.2133,1.2134,0,0,0,0,0,1.1256,1.1309,1.1328,1.1355,1.1504,1.1599,1.1618,1.1676,1.1674,1.1703,1.1761,1.1784,1.1956,1.1935,1.1958,1.1986,1.2154,1.2157,1.216,1.2131,1.2132,1.2134,0,0,0,0,0,0,1.1202,1.1324,1.1346,1.1436,1.1507,1.1609,1.1647,1.1676,1.1746,1.1746,1.1812,1.1833,1.1911,1.1957,1.1931,1.2058,1.2056,1.2064,1.2026,1.2028,1.203,1.2017,1.1957,0,0,0,0,0,1.1202,1.1272,1.1373,1.1442,1.1477,1.1556,1.1599,1.1638,1.1713,1.1742,1.1806,1.1875,1.1945,1.1989,1.2058,1.2138,1.2159,1.2169,1.217,1.2171,1.2176,1.2222,1.2227,1.2172,1.2172,1.2172,0,0,1.12,1.1275,1.1314,1.1433,1.1493,1.1562,1.158,1.1652,1.1703,1.1752,1.1836,1.1885,1.1966,1.2048,1.2087,1.2089,1.2196,1.2174,1.2174,1.218,1.2226,1.2231,1.2235,1.2174,1.2173,1.2173,0,0,1.1232,1.1296,1.1361,1.1422,1.1513,1.1566,1.1581,1.168,1.1715,1.1801,1.184,1.1899,1.2018,1.2075,1.2119,1.2174,1.2198,1.2194,1.22,1.2244,1.2249,1.2253,1.2272,1.2278,1.2199,1.2199,1.2199,0,1.1216,1.1325,1.139,1.1461,1.1512,1.1563,1.1628,1.1682,1.179,1.1822,1.1823,1.1975,1.2032,1.2129,1.2143,1.2177,1.2195,1.2183,1.2244,1.2248,1.2253,1.2272,1.2279,1.2198,1.2198,1.2198,1.2198,0,1.1302,1.1377,1.1418,1.1525,1.158,1.1647,1.172,1.1767,1.1802,1.1853,1.1939,1.2011,1.2096,1.2121,1.2153,1.2222,1.222,1.2231,1.223,1.2256,1.2275,1.2283,1.2196,1.2197,1.2197,1.2197,0,0,1.1304,1.1449,1.1463,1.1513,1.1618,1.1676,1.1744,1.1831,1.1871,1.1943,1.2001,1.2101,1.2113,1.2163,1.2202,1.224,1.2279,1.2247,1.225,1.225,1.2359,1.235,1.2357,1.2296,1.2298,1.2299,1.2352,0,1.135,1.148,1.1541,1.1642,1.1711,1.1762,1.1822,1.1891,1.1941,1.2004,1.2057,1.2128,1.2138,1.2169,1.2209,1.2266,1.2302,1.2263,1.2348,1.2351,1.2327,1.2367,1.2358,1.2404,1.236,1.2361,1.2362,0,1.1421,1.1498,1.1607,1.1706,1.1737,1.1791,1.1876,1.1936,1.2015,1.2049,1.2106,1.2144,1.2215,1.221,1.2309,1.2281,1.2319,1.2352,1.2355,1.2365,1.2358,1.2378,1.2421,1.2427,1.2374,1.2373,1.2372,0,1.1412,1.1542,1.1625,1.1666,1.1783,1.1819,1.1869,1.1948,1.1996,1.2069,1.2101,1.2179,1.2222,1.2281,1.2338,1.2329,1.2431,1.243,1.2459,1.2457,1.2477,1.2475,1.2526,1.2502,1.2502,1.2502,1.2502,0,1.1456,1.1521,1.1623,1.1674,1.1748,1.1816,1.1886,1.1938,1.2008,1.2068,1.2115,1.2169,1.2242,1.2305,1.2349,1.2424,1.2442,1.2469,1.2481,1.2466,1.2462,1.2491,1.2489,1.2504,1.2503,1.2503,1.2503,0,1.1458,1.153,1.1624,1.1728,1.1756,1.1805,1.1893,1.1943,1.1996,1.2071,1.2092,1.2173,1.225,1.2313,1.2412,1.2442,1.252,1.2532,1.2494,1.25,1.2525,1.2522,1.2597,1.261,1.2576,1.2576,1.2577,0,1.1482,1.1534,1.1646,1.1691,1.1742,1.1814,1.1865,1.1933,1.1983,1.2079,1.2116,1.2197,1.2265,1.2384,1.245,1.2526,1.2541,1.2562,1.2552,1.2535,1.2541,1.2537,1.2542,1.2562,1.2562,1.2562,1.2562,0,1.1517,1.1551,1.1624,1.1711,1.1772,1.1842,1.1913,1.1946,1.2027,1.2081,1.2162,1.2215,1.2319,1.2397,1.2481,1.2528,1.2558,1.2565,1.2576,1.256,1.2536,1.255,1.2496,1.2563,1.2563,1.2563,1.2563,1.2563,1.1531,1.158,1.1667,1.1747,1.1809,1.1875,1.1928,1.1988,1.2059,1.2151,1.2186,1.2268,1.2345,1.2461,1.2509,1.2572,1.2576,1.2591,1.2595,1.2597,1.2595,1.2527,1.2587,1.2587,1.2588,1.2588,1.2588,0,1.1569,1.1628,1.1701,1.1802,1.1865,1.1892,1.1972,1.2022,1.2095,1.2167,1.2234,1.2327,1.2404,1.2476,1.2556,1.2593,1.2608,1.2611,1.2609,1.2619,1.2588,1.2571,1.2597,1.2597,1.2597,1.2597,1.2597,1.2597,1.1595,1.168,1.1724,1.1838,1.1896,1.1981,1.2024,1.2084,1.2142,1.2245,1.2311,1.2359,1.243,1.2516,1.2587,1.2606,1.2633,1.2632,1.2654,1.2623,1.2621,1.262,1.2604,1.2637,1.2637,1.2681,1.2681,1.2681]}]]